sat.trackr.live / text

‹ back to catalog

YOUTHSAT

NORAD 37388 · 2011-015B

PAYLOAD ACTIVE UNKNOWN

§ Identity

Operator
Country
IND
Launch date
2011-04-20
Launch site
SRILR
Launch vehicle
Mass (kg)
RCS (m²)
0.69

External: N2YO · Heavens-Above · Gunter

§ Orbital elements

Epoch: 2026-09-19T18:36:29.281824Z

Period
101.01 min
Inclination
98.3810°
Eccentricity
0.0015672
Mean motion
14.25662229 rev/d
Perigee alt
795.0 km
Apogee alt
817.5 km
Semi-major
7,184.4 km
B*
6.8296e-5
RAAN
232.6179°
Arg perigee
66.0208°
Mean anomaly
53.0677°
Rev number
80,111

§ Raw data

YOUTHSAT1 37388U 11015B   26262.77533891  .00000121  00000+0  68296-4 0  99962 37388  98.3810 232.6179 0015672  66.0208  53.0677 14.25662229801111

JSON: /api/v1/satellites/37388 · /tle

For live sub-satellite position, see the globe view (requires WebGL).

§ Visibility from observer

Set your observer location to see the next 7 days of passes ≥ 10°. The values pass through the URL so the page stays shareable.

No JS? Fill the form by hand. The geolocation button needs JavaScript.

§ Radio — SatNOGS DB

ModeDescriptionDownlinkUplink
FM Mode S TLM 2.254 GHz
FM Mode V LM 149.995 MHz
FM S-band telemetry 2.280 GHz
CW UHF Unknown 400.000 MHz

4 transmitters · refreshed weekly from db.satnogs.org